Tracking 29892 objects as of 21-Nov-2024
HD Live streaming from Space Station
objects crossing your sky now

STARLINK-5885

Track STARLINK-5885 now!
10-day predictions
STARLINK-5885 is classified as:


NORAD ID: 56352
Int'l Code: 2023-058AM
Perigee: 567.8 km
Apogee: 572.5 km
Inclination: 97.7 °
Period: 95.9 minutes
Semi major axis: 6941 km
RCS: Unknown
Launch date: April 27, 2023
Source: United States (US)
Launch site: AIR FORCE WESTERN TEST RANGE (AFWTR)
Your satellite tracking list
Your tracking list is empty




NASA's NSSDC Master Catalog

Two Line Element Set (TLE):
1 56352U 23058AM  24325.93238087  .00001291  00000-0  10508-3 0  9995
2 56352  97.6535 324.5600 0003424  67.2826 292.8760 15.01258441 87057
Source of the keplerian elements: AFSPC